Other Public Products
Issued by NWS Charleston, SC

Current Version | Previous Version | Graphics & Text | Print | Product List | Glossary On
Versions: 1 2 3 4 5 6 7 8 9 10 11 12 13 14 15 16 17 18 19 20 21 22 23 24 25 26 27 28 29 30 31 32 33 34 35 36 37 38 39 40 41 42 43 44 45 46 47 48 49 50
164 FPUS82 KCHS 182012 OPUCHS TEST...KCHS/KSAV Gateway Observations...TEST National Weather Service Charleston SC 300 PM EST WED JAN 18 2017 NOTE: "fair" indicates few or no clouds below 12,000 feet with no significant weather and/or obstructions to visibility. SCZ050-WAZ558-NCZ071-TXZ119-213-PAZ071-DCZ001-FLZ074-172-MI076- NYZ176-178-MAZ016-IL014-TNZ027-NJZ106-GAZ044-MD014-182100- ...Gateway Observations for Charleston International... CITY SKY/WX TMP DP RH WIND PRES REMARKS Chas Airport PTSUNNY 78 58 49 W17G25 29.97F Seattle PTSUNNY 53 49 86 SE10 29.36F Charlotte MOSUNNY 74 32 21 N13 29.99F Dallas DFW CLOUDY 51 50 96 NW9 30.03F Dallas Love CLOUDY 50 48 93 N7 30.05F Philladelphia CLOUDY 48 41 76 N9 29.95R Wash National PTSUNNY 59 40 49 N17G23 29.96R Baltimore MOSUNNY 55 41 59 NW12 29.94R Miami PTSUNNY 82 63 52 SE7 30.11S Detroit CLOUDY 42 37 82 W10 30.05S Newark CLOUDY 42 38 85 N9 29.96R Laguardia CLOUDY 42 37 82 N9 29.96R J F K CLOUDY 42 36 79 N14 29.96R Boston Logan DRIZZLE 39 39 100 E15 29.99R FOG WCI 31 Ft. Lauderdale CLOUDY 77 65 66 SE13 30.10S Chicago O`Hare CLOUDY 36 32 85 SW14G20 30.06F WCI 27 Chicago Midway CLOUDY 34 31 88 SW12 30.07F WCI 25 Houston Bush CLOUDY 66 63 90 NW12 29.97R Houston Hobby TSTM 68 66 93 W13 29.95S VSB 1/2 Nashville CLOUDY 49 39 68 SE5 30.17F Atlanta PTSUNNY 68 52 56 NW10 30.09F $$ GAZ044-118-TXZ119-213-NCZ071-DCZ001-MDZ014-506-PAZ021-071-NJZ106- NYZ176-178-MAZ106-OHZ011-021-055-MIZ076-KYZ091-ILZ014-INZ047- MNZ060-182100- ...Gateway Observations for Savannah International... CITY SKY/WX TMP DP RH WIND PRES REMARKS Savannah Arpt MOSUNNY 77 58 51 W20G25 30.03F Atlanta PTSUNNY 68 52 56 NW10 30.09F Charlotte MOSUNNY 74 32 21 N13 29.99F Dallas DFW CLOUDY 51 50 96 NW9 30.03F Houston Bush CLOUDY 66 63 90 NW12 29.97R Wash National PTSUNNY 59 40 49 N17G23 29.96R Wash Dulles PTSUNNY 54 37 52 NW14 29.97R Baltimore MOSUNNY 55 41 59 NW12 29.94R Philadelphia CLOUDY 48 41 76 N9 29.95R Newark CLOUDY 42 38 85 N9 29.96R Laguardia CLOUDY 42 37 82 N9 29.96R J F K CLOUDY 42 36 79 N14 29.96R Boston DRIZZLE 39 39 100 E15 29.99R FOG WCI 31 Pittsburg CLOUDY 39 35 86 W9 30.08R WCI 33 Akron CLOUDY 39 34 82 W12 30.07F WCI 32 Cleveland CLOUDY 39 36 89 SW10 30.09F FOG WCI 32 Cincinnati CLOUDY 41 36 82 SW8 30.15F Columbus NOT AVBL Detroit CLOUDY 42 37 82 W10 30.05S Chicago O`Hare CLOUDY 36 32 85 SW14G20 30.06F WCI 27 Minneapolis SUNNY 40 30 67 SW8 29.86F WCI 34 Indianapolis CLOUDY 38 35 89 SW9 30.14F WCI 31 $$

USA.gov is the U.S. government's official web portal to all federal, state and local government web resources and services.